Weather History for Saranac Lake, NY

Change the Weather History Date:

Tuesday, February 18, 2014

  Actual Average Record
Temperature  
Mean Temperature 8 °F 15 °F  
Max Temperature 28 °F 29 °F 51 °F (1981)
Min Temperature -12 °F 2 °F -35 °F (1979)
Degree Days  
Heating Degree Days 57 50  
Month to date heating degree days 997 920  
Since 1 July heating degree days 6503 6222  
Moisture  
Dew Point 15 °F    
Average Humidity 57    
Maximum Humidity 86    
Minimum Humidity 28    
Precipitation  
Precipitation T in 0.05 in 1.00 in (1952)
Month to date precipitation 0.56 1.07  
Year to date precipitation 2.11 3.20  
Sea Level Pressure  
Sea Level Pressure 29.92 in    
Wind  
Wind Speed 8 mph (SSW)    
Max Wind Speed 20 mph    
Max Gust Speed 30 mph    
Visibility 6 miles    
Events Snow    
T = Trace of Precipitation, MM = Missing Value Source: NWS Daily Summary

Daily Weather History Graph

Daily Weather History Graph

Search for Another Location

Airport:

Trip Planner

Search our weather history database for the weather conditions in past years. The results will help you decide how hot, cold, wet, or windy it might be!

Date:

Astronomy

Feb. 18, 2014 Rise Set
Actual Time 6:52 AM EST 5:30 PM EST
Civil Twilight 6:22 AM EST 5:59 PM EST
Nautical Twilight 5:48 AM EST 6:33 PM EST
Astronomical Twilight 5:15 AM EST 7:07 PM EST
Moon 9:31 PM EST 8:13 AM EST
Length of Visible Light 11h 37m
Length of Day
10h 37m
Waning Gibbous, 87% of the Moon is Illuminated
Feb 18
Waning Gibbous
Feb 22
Last Quarter
Mar 1
New
Mar 8
First Quarter
Mar 16
Full

Hourly Weather History & Observations

Time (EST) Temp. Windchill Dew Point Humidity Pressure Visibility Wind Dir Wind Speed Gust Speed Precip Events Conditions
12:51 AM -9.0 °F -22.3 °F -14.1 °F 79% 30.19 in 10.0 mi NNE 5.8 mph - N/A   Clear
1:51 AM -9.0 °F -22.3 °F -13.0 °F 83% 30.15 in 10.0 mi SSW 5.8 mph - N/A   Clear
2:51 AM -0.9 °F -8.9 °F -8.0 °F 72% 30.12 in 10.0 mi Variable 3.5 mph - N/A   Clear
3:51 AM 3.9 °F - -5.1 °F 66% 30.04 in 10.0 mi Calm Calm - N/A   Mostly Cloudy
4:51 AM 21.9 °F 9.2 °F -8.0 °F 27% 30.04 in 10.0 mi SSE 13.8 mph 23.0 mph N/A   Overcast
5:51 AM 19.9 °F 8.6 °F 5.0 °F 52% 30.05 in 5.0 mi SSE 10.4 mph 20.7 mph 0.00 in Snow Light Snow
6:51 AM 18.0 °F - 10.9 °F 74% 30.01 in 10.0 mi Calm Calm - 0.00 in   Overcast
7:51 AM 19.0 °F 9.0 °F 10.9 °F 71% 29.99 in 10.0 mi SSE 8.1 mph - 0.00 in   Overcast
8:51 AM 21.0 °F 13.4 °F 10.9 °F 65% 29.98 in 10.0 mi Variable 5.8 mph - 0.00 in   Overcast
9:51 AM 24.1 °F 12.5 °F 14.0 °F 65% 29.94 in 10.0 mi South 12.7 mph 18.4 mph N/A   Overcast
10:51 AM 26.1 °F 15.0 °F 15.1 °F 63% 29.94 in 10.0 mi South 12.7 mph - N/A   Overcast
11:51 AM 27.0 °F 18.0 °F 17.1 °F 66% 29.93 in 10.0 mi South 9.2 mph 19.6 mph N/A   Overcast
12:46 PM 26.6 °F 19.1 °F 19.4 °F 74% 29.81 in 2.0 mi South 6.9 mph - 0.00 in Snow Light Snow
12:51 PM 26.1 °F 17.6 °F 19.9 °F 78% 29.92 in 1.8 mi SSW 8.1 mph - 0.00 in Snow Light Snow
1:02 PM 26.1 °F 15.0 °F 19.9 °F 78% 29.81 in 2.0 mi South 12.7 mph - 0.00 in Snow Light Snow
1:13 PM 26.1 °F 16.8 °F 19.9 °F 78% 29.81 in 5.0 mi South 9.2 mph - 0.00 in Snow Light Snow
1:46 PM 26.6 °F 17.5 °F 19.4 °F 74% 29.81 in 9.0 mi South 9.2 mph - 0.00 in   Overcast
1:51 PM 27.0 °F 17.3 °F 19.9 °F 75% 29.91 in 9.0 mi South 10.4 mph - 0.00 in   Overcast
2:22 PM 27.0 °F 15.2 °F 19.0 °F 72% 29.81 in 3.0 mi SW 15.0 mph - 0.00 in Snow Light Snow
2:25 PM 27.0 °F 15.2 °F 19.9 °F 75% 29.82 in 2.5 mi SW 15.0 mph - 0.00 in Snow Light Snow
2:31 PM 26.1 °F 14.5 °F 19.9 °F 78% 29.81 in 1.8 mi SW 13.8 mph - 0.00 in Snow Light Snow
2:39 PM 26.1 °F 16.8 °F 19.9 °F 78% 29.82 in 3.0 mi SSW 9.2 mph - 0.00 in Snow Light Snow
2:47 PM 26.6 °F 16.8 °F 21.2 °F 80% 29.82 in 2.5 mi SW 10.4 mph - 0.00 in Snow Light Snow
2:51 PM 26.1 °F 14.5 °F 19.9 °F 78% 29.92 in 2.5 mi SW 13.8 mph - 0.00 in Snow Light Snow
3:17 PM 26.1 °F 17.6 °F 19.9 °F 78% 29.83 in 4.0 mi SSW 8.1 mph - 0.00 in Snow Light Snow
3:51 PM 26.1 °F 15.6 °F 19.0 °F 75% 29.92 in 8.0 mi SW 11.5 mph - 0.00 in   Overcast
4:26 PM 25.0 °F 14.8 °F 19.9 °F 81% 29.84 in 2.0 mi SSW 10.4 mph - 0.00 in Snow Light Snow
4:37 PM 25.0 °F 16.3 °F 19.9 °F 81% 29.84 in 7.0 mi SW 8.1 mph - 0.00 in   Overcast
4:44 PM 25.0 °F 15.5 °F 19.9 °F 81% 29.84 in 3.0 mi SSW 9.2 mph - 0.00 in   Haze
4:46 PM 24.8 °F 14.6 °F 19.4 °F 80% 29.84 in 2.5 mi SSW 10.4 mph - 0.00 in   Haze
4:51 PM 25.0 °F 15.5 °F 19.9 °F 81% 29.92 in 1.8 mi SSW 9.2 mph - 0.00 in Snow Light Snow
5:06 PM 25.0 °F 18.1 °F 21.0 °F 85% 29.85 in 3.0 mi SW 5.8 mph - 0.00 in Snow Light Snow
5:30 PM 24.1 °F 18.2 °F 21.0 °F 88% 29.86 in 10.0 mi WSW 4.6 mph - 0.00 in   Mostly Cloudy
5:51 PM 24.1 °F 19.7 °F 21.0 °F 88% 29.95 in 4.0 mi WSW 3.5 mph - 0.00 in Snow Light Snow
5:57 PM 23.0 °F 14.7 °F 21.0 °F 92% 29.88 in 1.8 mi SSW 6.9 mph - 0.00 in Snow Light Snow
6:16 PM 23.0 °F 13.9 °F 19.0 °F 85% 29.89 in 3.0 mi WSW 8.1 mph - 0.00 in Snow Light Snow
6:24 PM 23.0 °F 15.8 °F 19.0 °F 85% 29.88 in 3.0 mi WSW 5.8 mph - 0.00 in Snow Light Snow
6:51 PM 21.9 °F 12.5 °F 18.0 °F 85% 29.97 in 6.0 mi WSW 8.1 mph - 0.00 in   Overcast
7:22 PM 21.9 °F 11.7 °F 17.1 °F 82% 29.90 in 9.0 mi West 9.2 mph - N/A   Overcast
7:51 PM 21.9 °F 14.5 °F 18.0 °F 85% 29.99 in 9.0 mi SW 5.8 mph - N/A   Overcast
8:07 PM 21.9 °F 12.5 °F 17.1 °F 82% 29.92 in 8.0 mi SW 8.1 mph - N/A   Overcast
8:36 PM 21.0 °F 12.4 °F 17.1 °F 85% 29.92 in 3.0 mi SSW 6.9 mph - 0.00 in Snow Light Snow
8:51 PM 21.0 °F 13.4 °F 18.0 °F 88% 29.99 in 4.0 mi SSW 5.8 mph - 0.00 in Snow Light Snow
9:51 PM 21.0 °F 13.4 °F 18.0 °F 88% 29.98 in 4.0 mi SSW 5.8 mph - 0.00 in Snow Light Snow
10:48 PM 21.2 °F 16.4 °F 17.6 °F 86% 29.90 in 9.0 mi WSW 3.5 mph - 0.00 in   Overcast
10:51 PM 21.0 °F 14.6 °F 18.0 °F 88% 29.98 in 9.0 mi WSW 4.6 mph - 0.00 in   Overcast
11:51 PM 21.0 °F 12.4 °F 17.1 °F 85% 29.98 in 9.0 mi SW 6.9 mph - N/A   Overcast